Weather History for Erzurum, Turkey

Change the Weather History Date:

Saturday, May 3, 2014

  Actual Average Record
Temperature  
Mean Temperature 42 °F -  
Max Temperature 54 °F 63 °F 68 °F (2003)
Min Temperature 29 °F 41 °F 28 °F (1998)
Degree Days  
Heating Degree Days 24    
Moisture  
Dew Point 34 °F    
Average Humidity 68    
Maximum Humidity 100    
Minimum Humidity 37    
Precipitation  
Precipitation 0.04 in 0.09 in - ()
Sea Level Pressure  
Sea Level Pressure 30.01 in    
Wind  
Wind Speed 6 mph ()    
Max Wind Speed 15 mph    
Max Gust Speed -    
Visibility 6.9 miles    
Events Rain , Hail , Thunderstorm    
Averages and records for this station are not official NWS values.
T = Trace of Precipitation, MM = Missing Value Source: Averaged Metar Reports

Daily Weather History Graph

Daily Weather History Graph

Search for Another Location

Airport:

Trip Planner

Search our weather history database for the weather conditions in past years. The results will help you decide how hot, cold, wet, or windy it might be!

Date:

Astronomy

May. 03, 2014 Rise Set
Actual Time 5:13 AM EEST 7:11 PM EEST
Civil Twilight 4:43 AM EEST 7:41 PM EEST
Nautical Twilight 4:08 AM EEST 8:17 PM EEST
Astronomical Twilight 3:29 AM EEST 8:56 PM EEST
Moon 8:23 AM EEST (5/3) 11:02 PM EEST (5/3)
Length of Visible Light 14h 57m
Length of Day
13h 58m
Waxing Crescent, 17% of the Moon is Illuminated
May 3
Waxing Crescent
May 7
First Quarter
May 14
Full
May 21
Last Quarter
May 28
New

Hourly Weather History & Observations

Time (EEST) Temp. Windchill Dew Point Humidity Pressure Visibility Wind Dir Wind Speed Gust Speed Precip Events Conditions
12:00 AM 45 °F - 27 °F 37%  in 12 mi WSW 8.1 mph - -   Partly Cloudy
12:20 AM 41.0 °F - 30.2 °F 65% 29.98 in 6.2 mi Variable 2.3 mph - N/A   Scattered Clouds
12:50 AM 41.0 °F 37.1 °F 30.2 °F 65% 29.98 in 6.2 mi WSW 5.8 mph - N/A   Scattered Clouds
1:20 AM 39.2 °F 35.9 °F 30.2 °F 70% 29.98 in 6.2 mi Variable 4.6 mph - N/A   Scattered Clouds
1:50 AM 37.4 °F - 30.2 °F 75% 29.98 in 6.2 mi Variable 2.3 mph - N/A   Scattered Clouds
2:20 AM 37.4 °F - 30.2 °F 75% 29.98 in 6.2 mi Variable 2.3 mph - N/A   Scattered Clouds
3:00 AM 35 °F - 30 °F 74%  in 12 mi East 2.3 mph - -   Partly Cloudy
3:20 AM 30.2 °F 25.4 °F 26.6 °F 86% 29.98 in 6.2 mi East 4.6 mph - N/A   Scattered Clouds
3:50 AM 30.2 °F 25.4 °F 28.4 °F 93% 29.98 in 6.2 mi East 4.6 mph - N/A   Scattered Clouds
4:20 AM 32.0 °F - 28.4 °F 87% 29.98 in 6.2 mi Calm Calm - N/A   Scattered Clouds
4:50 AM 30.2 °F - 26.6 °F 86% 29.98 in 6.2 mi WNW 2.3 mph - N/A   Scattered Clouds
5:20 AM 30.2 °F 24.3 °F 26.6 °F 86% 29.98 in 6.2 mi West 5.8 mph - N/A   Scattered Clouds
5:50 AM 32.0 °F 27.5 °F 28.4 °F 87% 29.98 in 6.2 mi West 4.6 mph - N/A   Scattered Clouds
6:00 AM 33 °F - 29 °F 79%  in 12 mi West 4.6 mph - -   Partly Cloudy
6:20 AM 37.4 °F - 32.0 °F 81% 29.98 in 6.2 mi Variable 2.3 mph - N/A   Scattered Clouds
6:50 AM 39.2 °F - 32.0 °F 75% 30.01 in 6.2 mi Variable 2.3 mph - N/A   Mostly Cloudy
7:20 AM 41.0 °F 39.0 °F 33.8 °F 76% 30.01 in 6.2 mi North 3.5 mph - N/A   Mostly Cloudy
7:50 AM 42.8 °F 41.1 °F 35.6 °F 76% 30.01 in 6.2 mi North 3.5 mph - N/A   Mostly Cloudy
8:20 AM 48.2 °F - 35.6 °F 62% 30.01 in 6.2 mi Variable 2.3 mph - N/A   Mostly Cloudy
8:50 AM 48.2 °F - 35.6 °F 62% 30.01 in 6.2 mi ESE 4.6 mph - N/A   Mostly Cloudy
9:00 AM 49 °F - 35 °F 46%  in 12 mi ESE 4.6 mph - -   Partly Cloudy
9:20 AM 48.2 °F - 37.4 °F 66% 30.01 in 6.2 mi Variable 2.3 mph - N/A   Mostly Cloudy
9:50 AM 50.0 °F - 37.4 °F 62% 30.01 in 6.2 mi Variable 2.3 mph - N/A   Mostly Cloudy
10:20 AM 50.0 °F - 33.8 °F 54% 30.01 in 6.2 mi NNW 6.9 mph - N/A Rain Light Rain Showers
10:35 AM 51.8 °F - 35.6 °F 54% 30.01 in 6.2 mi Variable 3.5 mph - N/A   Mostly Cloudy
10:50 AM 51.8 °F - 35.6 °F 54% 30.01 in 6.2 mi WNW 9.2 mph - N/A   Mostly Cloudy
11:00 AM 51.8 °F - 35.6 °F 54% 30.01 in 6.2 mi WNW 9.2 mph - N/A Rain Light Rain Showers
11:11 AM 50.0 °F - 32.0 °F 50% 29.98 in 6.2 mi WSW 12.7 mph - N/A   Mostly Cloudy
11:20 AM 51.8 °F - 32.0 °F 47% 29.98 in 6.2 mi WSW 13.8 mph - N/A   Mostly Cloudy
11:22 AM 51.8 °F - 30.2 °F 44% 29.98 in 6.2 mi WSW 13.8 mph - N/A Rain Light Rain Showers
11:50 AM 51.8 °F - 33.8 °F 50% 29.98 in 6.2 mi West 11.5 mph - N/A Rain Light Rain Showers
12:00 PM 51 °F - 35 °F 43%  in 12 mi West 11.5 mph - - Rain Light Rain Showers
12:08 PM 53.6 °F - 35.6 °F 51% 29.98 in 6.2 mi West 11.5 mph - N/A   Mostly Cloudy
12:20 PM 51.8 °F - 33.8 °F 50% 30.01 in 6.2 mi WNW 11.5 mph - N/A   Mostly Cloudy
12:34 PM 51.8 °F - 33.8 °F 50% 30.01 in 6.2 mi WNW 11.5 mph - N/A Rain , Thunderstorm Light Thunderstorms and Rain
12:50 PM 53.6 °F - 35.6 °F 51% 30.01 in 6.2 mi SSW 13.8 mph - N/A Rain , Thunderstorm Light Thunderstorms and Rain
1:20 PM 51.8 °F - 33.8 °F 50% 29.98 in 6.2 mi South 10.4 mph - N/A Rain , Thunderstorm Light Thunderstorms and Rain
1:50 PM 51.8 °F - 32.0 °F 47% 30.01 in 6.2 mi South 5.8 mph - N/A Rain , Thunderstorm Light Thunderstorms and Rain
2:20 PM 51.8 °F - 35.6 °F 54% 29.98 in 6.2 mi West 15.0 mph - N/A   Mostly Cloudy
2:50 PM 53.6 °F - 35.6 °F 51% 29.98 in 6.2 mi North 12.7 mph - N/A   Mostly Cloudy
3:00 PM 53 °F - 37 °F 42%  in 12 mi North 12.7 mph - - Thunderstorm Light Thunderstorm
3:20 PM 53.6 °F - 35.6 °F 51% 29.98 in 6.2 mi North 9.2 mph - N/A Thunderstorm Thunderstorm
3:50 PM 51.8 °F - 33.8 °F 50% 30.01 in 4.3 mi North 10.4 mph - N/A Rain , Thunderstorm Light Thunderstorms and Rain
4:09 PM 50.0 °F - 37.4 °F 62% 30.01 in 6.2 mi SSE 8.1 mph - N/A Thunderstorm Thunderstorm
4:20 PM 50.0 °F - 37.4 °F 62% 30.01 in 6.2 mi South 10.4 mph - N/A Thunderstorm Thunderstorm
4:50 PM 48.2 °F - 37.4 °F 66% 30.01 in 6.2 mi SE 10.4 mph - N/A Thunderstorm Thunderstorm
5:18 PM 48.2 °F - 39.2 °F 71% 30.04 in 6.2 mi WSW 4.6 mph - N/A Rain , Thunderstorm Light Thunderstorms and Rain
5:20 PM 48.2 °F - 39.2 °F 71% 30.04 in 6.2 mi West 4.6 mph - N/A Rain , Thunderstorm Light Thunderstorms and Rain
5:50 PM 46.4 °F 42.4 °F 39.2 °F 76% 30.04 in 6.2 mi North 8.1 mph - N/A Rain , Thunderstorm Light Thunderstorms and Rain
6:00 PM 46 °F - 39 °F 70%  in 12 mi North 8.1 mph - - Rain , Thunderstorm Thunderstorms and Rain
6:16 PM 44.6 °F 39.2 °F 39.2 °F 81% 30.04 in 6.2 mi North 10.4 mph - N/A Thunderstorm Thunderstorm
6:20 PM 44.6 °F 39.7 °F 39.2 °F 81% 30.04 in 6.2 mi North 9.2 mph - N/A Thunderstorm Thunderstorm
6:38 PM 44.6 °F 38.8 °F 39.2 °F 81% 30.04 in 6.2 mi WNW 11.5 mph - N/A Rain , Hail , Thunderstorm Light Thunderstorms with Hail
6:50 PM 42.8 °F 38.6 °F 39.2 °F 87% 30.04 in 6.2 mi NNE 6.9 mph - N/A Thunderstorm Thunderstorm
7:20 PM 42.8 °F 40.1 °F 39.2 °F 87% 30.06 in 6.2 mi SSE 4.6 mph - N/A Thunderstorm Thunderstorm
7:50 PM 42.8 °F 38.6 °F 39.2 °F 87% 30.06 in 6.2 mi SSE 6.9 mph - N/A Thunderstorm Thunderstorm
8:20 PM 42.8 °F 37.5 °F 37.4 °F 81% 30.06 in 6.2 mi SSW 9.2 mph - N/A   Mostly Cloudy
8:50 PM 41.0 °F 39.0 °F 37.4 °F 87% 30.06 in 6.2 mi SSW 3.5 mph - N/A   Mostly Cloudy
9:00 PM 40 °F - 37 °F 86%  in 12 mi SSW 3.5 mph - - Thunderstorm Light Thunderstorm
9:20 PM 41.0 °F 38.0 °F 35.6 °F 81% 30.06 in 6.2 mi SSW 4.6 mph - N/A   Mostly Cloudy
9:50 PM 39.2 °F 35.9 °F 37.4 °F 93% 30.06 in 6.2 mi NNW 4.6 mph - N/A   Scattered Clouds
10:20 PM 39.2 °F - 35.6 °F 87% 30.09 in 6.2 mi Calm Calm - N/A   Scattered Clouds
10:50 PM 35.6 °F 31.7 °F 33.8 °F 93% 30.09 in 6.2 mi SSE 4.6 mph - N/A   Partly Cloudy
11:20 PM 35.6 °F 31.7 °F 33.8 °F 93% 30.09 in 6.2 mi SSW 4.6 mph - N/A   Partly Cloudy
11:50 PM 33.8 °F 28.6 °F 33.8 °F 100% 30.09 in - SW 5.8 mph - N/A   Clear